Regional Weather Roundup
Issued by NWS

Home | Current Version | Previous Version | Text Only | Print | Product List | Glossary Off
Versions: 1 2 3 4 5 6 7 8 9 10 11 12 13 14 15 16 17 18 19 20 21 22 23 24 25 26 27 28 29 30 31 32 33 34 35 36 37 38 39 40 41 42 43 44 45 46 47 48 49 50

000
ASUS45 KABQ 280901
RWRNM
NEW MEXICO REGIONAL WEATHER ROUNDUP
NATIONAL WEATHER SERVICE ALBUQUERQUE NM
300 AM MDT FRI AUG 28 2015

NOTE: "FAIR" MEANS FEW OR NO CLOUDS BELOW 12,000 FEET AGL WITH NO
       SIGNIFICANT WEATHER OR OBSTRUCTIONS TO VISION.

      THIS PRODUCT IS RELEASED AS TWO VERSIONS.  ONE VERSION NEAR
      THE TOP OF THE HOUR CONTAINING PRELIMINARY DATA FROM ALBUQUERQUE
      AND OTHER STATIONS.  A FINAL VERSION WITH ADDITIONAL DATA IS
      ISSUED ABOUT 10 MINUTES AFTER THE HOUR.

NMZ501-503-504-510>518-281000-
NORTHWEST PLATEAU/NORTHCENTRAL MOUNTAINS

CITY           SKY/WX    TMP DP  RH WIND       PRES   REMARKS
FARMINGTON     CLEAR     60  53  77 E3        30.21R
SANTA FE       CLEAR     59  50  72 NE8       30.24F
TAOS           CLEAR     52  39  62 CALM      30.34S

$$
NMZ402-403-502-505>509-281000-
WESTCENTRAL MOUNTAINS/SOUTHWEST MOUNTAINS

CITY           SKY/WX    TMP DP  RH WIND       PRES   REMARKS
GALLUP         PTCLDY    59  54  83 CALM      30.31S
SILVER CITY      N/A     64  54  68 N10       30.21F

$$
NMZ407-409-411-412-281000-
SOUTHERN DESERTS

CITY           SKY/WX    TMP DP  RH WIND       PRES   REMARKS
DEMING         CLEAR     68  57  68 CALM      30.11F
HOLLOMAN AFB   MOCLDY    71  56  60 N5        30.06F
ALAMOGORDO     CLEAR     73  52  46 NE8       30.08F
T OR C         CLEAR     72  54  53 NW9       30.14F

$$
NMZ519>523-281000-
CENTRAL VALLEYS/CENTRAL HIGHLANDS

CITY           SKY/WX    TMP DP  RH WIND       PRES   REMARKS
ALBUQUERQUE    PTCLDY    65  54  67 SE6       30.20F
DOUBLE EAGLE   PTCLDY    61  53  76 W8        30.24S
MORIARTY ARPT  FAIR      57  51  81 N3        30.25S
CLINES CORNERS PTCLDY    57  49  74 NW10      30.27S
BELEN          FAIR      63  56  79 SW3       30.19S
SOCORRO        NOT AVBL

$$
NMZ524>526-539-540-281000-
SOUTHCENTRAL MOUNTAINS

CITY           SKY/WX    TMP DP  RH WIND       PRES   REMARKS
RUIDOSO        PTCLDY    63  48  59 MISG      30.30S

$$
NMZ527>531-281000-
NORTHEAST HIGHLANDS/NORTHEAST PLAINS

CITY           SKY/WX    TMP DP  RH WIND       PRES   REMARKS
LAS VEGAS      CLEAR     57  50  77 N10       30.28S
RATON          MOCLDY    60  51  72 VRB6      30.22F
CLAYTON        MOCLDY    67  58  72 NW8       30.13R

$$
NMZ532>537-281000-
EASTCENTRAL PLAINS

CITY           SKY/WX    TMP DP  RH WIND       PRES   REMARKS
TUCUMCARI      MOCLDY    69  55  60 W7        30.04F
CANNON AFB     PTCLDY    69  57  64 S9        30.08F
CLOVIS AIRPORT MOCLDY    68  55  64 SW9       30.09F

$$
NMZ028-029-538-281000-
SOUTHEAST PLAINS

CITY           SKY/WX    TMP DP  RH WIND       PRES   REMARKS
ROSWELL        MOCLDY    71  55  56 NE3       30.04F
ARTESIA        PTCLDY    73  54  49 SW6       30.04F
CARLSBAD       CLEAR     76  51  41 S5        30.01F


$$


USA.gov is the U.S. government's official web portal to all federal, state and local government web resources and services.